Regional Weather Roundup
Issued by NWS

Home | Current Version | Previous Version | Text Only | Print | Product List | Glossary Off
Versions: 1 2 3 4 5 6 7 8 9 10 11 12 13 14 15 16 17 18 19 20 21 22 23 24 25 26 27 28 29 30 31 32 33 34 35 36 37 38 39 40 41 42 43 44 45 46 47 48 49 50

000
ASUS43 KLSX 221310
RWRMO

WEATHER SUMMARY FOR MISSOURI
NATIONAL WEATHER SERVICE SPRINGFIELD MO
800 AM CDT MON MAY 22 2017

NOTE: "FAIR" INDICATES FEW OR NO CLOUDS BELOW 12,000 FEET WITH NO
       SIGNIFICANT WEATHER AND/OR OBSTRUCTIONS TO VISIBILITY.
       CURRENT SKY AND/OR WEATHER CONDITIONS ARE NOT AVAILABLE FOR
       CHILLICOTHE AND FARMINGTON.

MOZ001>031-035>038-043-044-053-054-221400-
...NORTHERN AND WESTERN MISSOURI...

CITY           SKY/WX    TMP DP  RH WIND       PRES   REMARKS
KANSAS CTY INT CLOUDY    59  53  80 S9        30.06S
KANSAS C DTWN  MOSUNNY   64  52  64 SW7       30.07R
LEE`S SUMMIT   CLOUDY    62  53  72 SW9       30.08S
ST JOSEPH      CLOUDY    57  52  83 SW3       30.04F
CHILLICOTHE      N/A     57  50  77 S5        30.06F
KIRKSVILLE     SUNNY     58  46  64 SW10      30.07F

$$
MOZ066>068-077>081-088>096-101>105-221400-
...SOUTHWEST MISSOURI...

CITY           SKY/WX    TMP DP  RH WIND       PRES   REMARKS
SPRINGFIELD    MOSUNNY   57  51  80 S12       30.13S
JOPLIN         CLOUDY    58  54  86 S8        30.14S
BRANSON        PTSUNNY   55  50  82 CALM      30.17R

$$
MOZ032>034-039>042-045>050-055>058-069>072-221400-
...CENTRAL MISSOURI...

CITY           SKY/WX    TMP DP  RH WIND       PRES   REMARKS
COLUMBIA       SUNNY     56  51  84 S7        30.11F
JEFFERSON CITY SUNNY     55  49  80 SE6       30.12F
ROLLA          CLOUDY    56  49  77 S8        30.12F
SEDALIA        SUNNY     60  53  77 S8        30.10F
WHITEMAN AFB   MOSUNNY   59  59 100 SW10      30.08S
WARRENSBURG    SUNNY     57  52  82 S8        30.09S
OSAGE BEACH    SUNNY     52  48  86 S5        30.14S

$$
MOZ051-052-059>065-221400-
...EAST CENTRAL MISSOURI...

CITY           SKY/WX    TMP DP  RH WIND       PRES   REMARKS
ST LOUIS INTL  CLOUDY    63  49  60 CALM      30.13S
SPIRIT OF STL  CLOUDY    54  51  90 CALM      30.13S
ST CHARLES     CLOUDY    56  53  90 CALM      30.12S

$$
MOZ072>076-082>087-097>100-106>115-221400-
...SOUTH CENTRAL AND SOUTHEAST MISSOURI...

CITY           SKY/WX    TMP DP  RH WIND       PRES   REMARKS
CAPE GIRARDEAU PTSUNNY   59  52  77 CALM      30.15F
FARMINGTON     CLOUDY    51  48  89 CALM      30.16F
POPLAR BLUFF   CLOUDY    57  53  86 CALM      30.15F
WEST PLAINS    CLOUDY    55  51  86 CALM      30.16S

$$




USA.gov is the U.S. government's official web portal to all federal, state and local government web resources and services.